Preview of NWS' New Version of Forecast
This preview is not operational and should not be used for support decisions.

Regional Weather Roundup (RWR)

Issued by Gray - Portland, ME (GYX)

                            
000
ASUS41 KGYX 171405
RWRGYX
WEATHER ROUNDUP FOR MAINE AND NEW HAMPSHIRE
NATIONAL WEATHER SERVICE GRAY ME
900 AM EST THU JAN 17 2019

MEZ002-005-006-010-012-015-018-020-021-024-026-027-029-171500-
MAINE
  
CITY           SKY/WX    TMP DP  RH WIND       PRES   REMARKS
PORTLAND       FAIR      12  -2  53 NW8       30.37R                  
SANFORD        FAIR      11  -5  48 W9        30.36R                  
BAR HARBOR     FAIR       8  -8  48 NW9G18    30.35R                  
WISCASSET      FAIR      11  -5  48 NW8       30.38R                  
ROCKLAND       FAIR       9  -5  53 VRB6      30.36R                  
FRYEBURG       FAIR       8 -14  35 W3        30.34R                  
LEWISTONAUBURN FAIR       8  -8  48 NW10G18   30.36R WCI  -6          
AUGUSTA        FAIR       6  -8  52 NW10      30.35R WCI  -9          
WATERVILLE     FAIR       6  -8  52 MISG      30.32R                  
BANGOR         FAIR       6  -9  50 NW15G24   30.35R WCI -12          
GREENVILLE       N/A     -4 -16  56 NW10G23   30.20R WCI -21          
MILLINOCKET    FAIR      -1 -14  53 NW9G20    30.33R                  
HOULTON        FAIR      -4 -14  62 NW14G21   30.27R WCI -24          
PRESQUE ISLE   FAIR      -5 -14  65 W12       30.28R WCI -23          
FRENCHVILLE    FAIR     -10 -20  61 NW8       30.18R                  
CARIBOU        FAIR      -6 -15  65 W3        30.24R                  
$$

NHZ002-005-008-009-011-012-014-171500-
NEW HAMPSHIRE
  
CITY           SKY/WX    TMP DP  RH WIND       PRES   REMARKS
PORTSMOUTH     MOSUNNY   14 -10  33 W13       30.36R WCI   0          
ROCHESTER      FAIR      11  -7  44 NW15      30.35R WCI  -5          
NASHUA         FAIR      13  -1  54 NW8       30.41R                  
MANCHESTER     FAIR      13  -3  49 NW8       30.38R                  
CONCORD        FAIR       9  -2  61 NW9       30.40R                  
LACONIA        FAIR       6  -6  57 SW6       30.38R                  
PLYMOUTH       FAIR       4  -7  59 NW9       30.39R                  
BERLIN         FAIR       1 -10  60 CALM      30.31R                  
WHITEFIELD     FAIR      -6 -11  79 CALM      30.34R                  
JAFFREY        FAIR      10   0  63 CALM      30.32R                  
KEENE          FAIR      11   1  64 N3        30.40R                  
LEBANON        FAIR      -2  -8  76 CALM      30.41R                  
MT WASHINGTON  MOSUNNY  -11 -26  49 NW60        N/A  WCI -49          
$$

VTZ005-007-008-171500-
VERMONT
  
CITY           SKY/WX    TMP DP  RH WIND       PRES   REMARKS
ST JOHNSBURY     N/A     -5 -11  75 MISG      30.39R                  
MONTPELIER     FAIR      -2  -6  83 CALM      30.38R                  
BURLINGTON     FAIR       2  -6  69 CALM      30.45R                  
$$

MAZ007-012-024-CTZ003-RIZ002-NYZ038-NYZ072-171500-
SOUTHERN NEW ENGLAND AND NY
  
CITY           SKY/WX    TMP DP  RH WIND       PRES   REMARKS
BOSTON         FAIR      19  -4  36 NW13      30.40R WCI   6          
WORCESTER      FAIR      13  -1  54 NW9       30.32R                  
NANTUCKET      FAIR      27   9  46 N17G26    30.35R WCI  14          
PROVIDENCE     FAIR      22   2  42 N12       30.40R WCI  10          
HARTFORD       PTSUNNY   20  -5  33 N8        30.41R                  
ALBANY         FAIR      13  -3  49 N3        30.45R                  
NEW YORK CITY  PTSUNNY   26  10  50 N9        30.41R                  
$$

ANZ081-ANZ082-ANZ150-NHZ014-MEZ023>029-171500-
COASTAL MARINE OBSERVATIONS
  
STATION/POSITION TIME  TEMP    WIND        PRES    WAVE
                       AIR SEA DIR/SP/G            HT/PER
                 (UTC) (F)     (DEG/KT/KT) (MB)    (FT/S)
MOUNT DESERT ROC 1300   15     310/ 25/ 28 1025.9R
MATINICUS ROCK   1300   13     320/ 22/ 25 1026.1R
ISLE OF SHOALS   1300   14     320/ 23/ 25 1027.0R
JEFFREYS LEDGE   1338      43                N/A     4/ 5
CASHES LEDGE BUO 1250   22 40              1025.8    6/ 6
$$

.............KEY..............
   WCI - WIND CHILL
   TC  - TEMPERATURE IN CELSIUS
   VSB - VISIBILITY IN MILES
   HX  - HEAT INDEX
   FAIR- INDICATES FEW OR NO CLOUDS BELOW 12,000 FT, WITH NO 
         SIGNIFICANT WEATHER AND/OR OBSTRUCTIONS TO VISIBILITY.